Tracking 32139 objects as of 14-Nov-2025
HD Live streaming from Space Station
objects crossing your sky now

KUIPER-00115

Track KUIPER-00115 now!
10-day predictions
KUIPER-00115 is classified as:


NORAD ID: 65152
Int'l Code: 2025-171W
Perigee: 629.0 km
Apogee: 644.0 km
Inclination: 51.9 °
Period: 97.3 minutes
Semi major axis: 7007 km
RCS: Unknown
Launch date: August 11, 2025
Source: United States (US)
Launch site: AIR FORCE EASTERN TEST RANGE (AFETR)
Your satellite tracking list
Your tracking list is empty




NASA's NSSDC Master Catalog

Two Line Element Set (TLE):
1 65152U 25171W   25317.98794012 -.00013404  00000-0 -17281-2 0  9998
2 65152  51.9037 319.7182 0010742 112.4930 247.7171 14.79994761 15610
Source of the keplerian elements: AFSPC